Вернуться в каталог

STARLINK-3233

АктивенСвязьVLEO
NORAD 49746·PAYLOAD·🇺🇸 United States

Запущен Dec 2, 2021 с Cape Canaveral Space Force Station

Loading…

Ближайшие Пролёты (ближайшие 24 часа)

TLE

СвежийSource: CelesTrak SupGP

Эпоха: Sep 15, 2026, 02:17 UTC

1 49746C 21115Y   26258.09562500  .00014558  00000+0  41750-3 0  2580
2 49746  53.1609  13.0228 0001522  81.4274  87.7704 15.35316539    13

Отслеживайте STARLINK-3233 в реальном времени с AllMySat

Download on the App Store